• Em Portugal
  • Lista de países
  • Para 7 dias
  • Temperatura da água
  • Mapas de satélite
  • Mapa do tempo
  • Widgets de tempo
  • user-avatar
    Iniciar Sessão

    Previsão horária em Konstantinovka

    Hoje, 20 Outubro, Sábado

    Tempo Temperatura Precipitação Vento Pressão Humidade
    00:00 +15°C° 0 mm 2 m/s 752 mmHg 70%
    01:00 +14°C° 0 mm 1 m/s 752 mmHg 73%
    02:00 +14°C° 0 mm 1 m/s 752 mmHg 75%
    03:00 +13°C° 0 mm 1 m/s 751 mmHg 82%
    04:00 +13°C° 0 mm 1 m/s 751 mmHg 83%
    05:00 +13°C° 0 mm 1 m/s 751 mmHg 84%
    06:00 +13°C° 0 mm 1 m/s 751 mmHg 85%
    07:00 +14°C° 0 mm 1 m/s 751 mmHg 81%
    08:00 +15°C° 0 mm 1 m/s 751 mmHg 77%
    09:00 +15°C° 0 mm 1 m/s 751 mmHg 73%
    10:00 +18°C° 0 mm 1 m/s 751 mmHg 67%
    11:00 +19°C° 0 mm 1 m/s 751 mmHg 60%
    12:00 +21°C° 0 mm 1 m/s 751 mmHg 54%
    13:00 +21°C° 0 mm 1 m/s 751 mmHg 51%
    14:00 +22°C° 0 mm 1 m/s 751 mmHg 49%
    15:00 +23°C° 0 mm 1 m/s 751 mmHg 46%
    16:00 +21°C° 0 mm 1 m/s 751 mmHg 49%
    17:00 +20°C° 0 mm 1 m/s 751 mmHg 53%
    18:00 +19°C° 0 mm 1 m/s 751 mmHg 56%
    19:00 +19°C° 0 mm 1 m/s 751 mmHg 59%
    20:00 +18°C° 0 mm 1 m/s 751 mmHg 61%
    21:00 +18°C° 0 mm 1 m/s 751 mmHg 64%
    22:00 +16°C° 0 mm 1 m/s 751 mmHg 66%
    23:00 +16°C° 0 mm 1 m/s 751 mmHg 68%

    Amanhã, 21 Outubro, Domingo

    Tempo Temperatura Precipitação Vento Pressão Humidade
    00:00 +15°C° 0 mm 1 m/s 751 mmHg 70%
    01:00 +15°C° 0 mm 1 m/s 751 mmHg 72%
    02:00 +15°C° 0 mm 1 m/s 751 mmHg 74%
    03:00 +14°C° 0 mm 1 m/s 751 mmHg 76%
    04:00 +14°C° 0 mm 1 m/s 751 mmHg 78%
    05:00 +14°C° 0 mm 1 m/s 751 mmHg 80%
    06:00 +13°C° 0 mm 1 m/s 751 mmHg 82%
    07:00 +14°C° 0 mm 2 m/s 752 mmHg 79%
    08:00 +15°C° 0 mm 2 m/s 752 mmHg 76%
    09:00 +15°C° 0 mm 2 m/s 752 mmHg 73%
    10:00 +17°C° 0 mm 2 m/s 752 mmHg 67%
    11:00 +18°C° 0 mm 2 m/s 752 mmHg 60%
    12:00 +20°C° 0 mm 2 m/s 753 mmHg 53%
    13:00 +21°C° 0 mm 2 m/s 753 mmHg 51%
    14:00 +21°C° 0 mm 2 m/s 753 mmHg 48%
    15:00 +23°C° 0 mm 2 m/s 752 mmHg 46%
    16:00 +21°C° 0 mm 2 m/s 753 mmHg 49%
    17:00 +20°C° 0 mm 2 m/s 753 mmHg 53%
    18:00 +19°C° 0 mm 2 m/s 753 mmHg 56%
    19:00 +18°C° 0.1 mm 3 m/s 753 mmHg 60%
    20:00 +18°C° 0.1 mm 3 m/s 753 mmHg 64%
    21:00 +17°C° 0.1 mm 3 m/s 753 mmHg 67%
    22:00 +17°C° 0.7 mm 3 m/s 753 mmHg 72%
    23:00 +17°C° 0.7 mm 3 m/s 753 mmHg 77%

    Depois de amanhã, 22 Outubro, Segunda-feira

    Tempo Temperatura Precipitação Vento Pressão Humidade
    00:00 +16°C° 0.7 mm 2 m/s 753 mmHg 82%
    01:00 +16°C° 2.1 mm 3 m/s 753 mmHg 85%
    02:00 +16°C° 2.1 mm 3 m/s 753 mmHg 88%
    03:00 +14°C° 2.1 mm 4 m/s 753 mmHg 91%
    04:00 +14°C° 0.8 mm 4 m/s 753 mmHg 90%
    05:00 +14°C° 0.8 mm 4 m/s 753 mmHg 90%
    06:00 +14°C° 0.8 mm 4 m/s 753 mmHg 90%
    07:00 +14°C° 0.4 mm 4 m/s 753 mmHg 89%
    08:00 +15°C° 0.4 mm 4 m/s 753 mmHg 87%
    09:00 +15°C° 0.4 mm 4 m/s 753 mmHg 86%
    10:00 +15°C° 1 mm 4 m/s 753 mmHg 86%
    11:00 +15°C° 1 mm 4 m/s 753 mmHg 86%
    12:00 +15°C° 1 mm 4 m/s 753 mmHg 85%
    13:00 +15°C° 1.1 mm 4 m/s 753 mmHg 84%
    14:00 +16°C° 1.1 mm 3 m/s 753 mmHg 83%
    15:00 +16°C° 1.1 mm 3 m/s 753 mmHg 82%
    16:00 +16°C° 0.2 mm 3 m/s 752 mmHg 84%
    17:00 +16°C° 0.2 mm 3 m/s 752 mmHg 86%
    18:00 +16°C° 0.2 mm 2 m/s 752 mmHg 88%
    19:00 +15°C° 0 mm 2 m/s 752 mmHg 89%
    20:00 +15°C° 0 mm 2 m/s 752 mmHg 91%
    21:00 +14°C° 0 mm 2 m/s 752 mmHg 93%
    22:00 +14°C° 0 mm 2 m/s 752 mmHg 94%
    23:00 +13°C° 0 mm 2 m/s 752 mmHg 94%

    23 Outubro, Terça-feira

    Tempo Temperatura Precipitação Vento Pressão Humidade
    00:00 +13°C° 0 mm 2 m/s 752 mmHg 94%
    01:00 +13°C° 0 mm 2 m/s 752 mmHg 94%
    02:00 +12°C° 0 mm 2 m/s 752 mmHg 94%
    03:00 +12°C° 0 mm 2 m/s 752 mmHg 94%
    04:00 +12°C° 0 mm 2 m/s 752 mmHg 94%
    05:00 +12°C° 0 mm 2 m/s 752 mmHg 94%
    06:00 +12°C° 0 mm 2 m/s 752 mmHg 93%
    07:00 +12°C° 0 mm 2 m/s 752 mmHg 90%
    08:00 +13°C° 0 mm 2 m/s 752 mmHg 87%
    09:00 +13°C° 0 mm 2 m/s 752 mmHg 84%
    10:00 +14°C° 0 mm 2 m/s 752 mmHg 78%
    11:00 +16°C° 0 mm 3 m/s 752 mmHg 71%
    12:00 +17°C° 0 mm 3 m/s 752 mmHg 65%
    13:00 +17°C° 0 mm 3 m/s 752 mmHg 64%
    14:00 +17°C° 0 mm 3 m/s 751 mmHg 63%
    15:00 +17°C° 0 mm 3 m/s 751 mmHg 62%
    16:00 +17°C° 0 mm 3 m/s 751 mmHg 64%
    17:00 +16°C° 0 mm 3 m/s 751 mmHg 66%
    18:00 +15°C° 0 mm 2 m/s 751 mmHg 68%
    19:00 +15°C° 0 mm 2 m/s 751 mmHg 68%
    20:00 +14°C° 0 mm 2 m/s 750 mmHg 69%
    21:00 +14°C° 0 mm 2 m/s 750 mmHg 69%
    22:00 +13°C° 0 mm 2 m/s 750 mmHg 71%
    23:00 +12°C° 0 mm 2 m/s 750 mmHg 72%

    24 Outubro, Quarta-feira

    Tempo Temperatura Precipitação Vento Pressão Humidade
    00:00 +12°C° 0 mm 2 m/s 750 mmHg 73%
    01:00 +10°C° 0 mm 2 m/s 749 mmHg 73%
    02:00 +10°C° 0 mm 2 m/s 749 mmHg 73%
    03:00 +9°C° 0 mm 2 m/s 749 mmHg 73%
    04:00 +9°C° 0 mm 2 m/s 748 mmHg 72%
    05:00 +9°C° 0 mm 2 m/s 748 mmHg 72%
    06:00 +8°C° 0 mm 2 m/s 747 mmHg 72%
    07:00 +9°C° 0 mm 3 m/s 747 mmHg 67%
    08:00 +10°C° 0 mm 3 m/s 747 mmHg 62%
    09:00 +11°C° 0 mm 4 m/s 746 mmHg 57%
    10:00 +12°C° 0 mm 4 m/s 745 mmHg 54%
    11:00 +14°C° 0 mm 5 m/s 745 mmHg 51%
    12:00 +15°C° 0 mm 6 m/s 744 mmHg 48%
    13:00 +15°C° 0.1 mm 6 m/s 743 mmHg 54%
    14:00 +15°C° 0.1 mm 6 m/s 742 mmHg 60%
    15:00 +15°C° 0.1 mm 7 m/s 741 mmHg 67%
    16:00 +15°C° 0.4 mm 6 m/s 741 mmHg 72%
    17:00 +14°C° 0.4 mm 6 m/s 740 mmHg 77%
    18:00 +14°C° 0.4 mm 6 m/s 739 mmHg 82%
    19:00 +14°C° 0.6 mm 6 m/s 739 mmHg 84%
    20:00 +14°C° 0.6 mm 5 m/s 738 mmHg 86%
    21:00 +14°C° 0.6 mm 5 m/s 738 mmHg 88%
    22:00 +13°C° 1.9 mm 4 m/s 737 mmHg 88%
    23:00 +13°C° 1.9 mm 4 m/s 737 mmHg 89%

    25 Outubro, Quinta-feira

    Tempo Temperatura Precipitação Vento Pressão Humidade
    00:00 +13°C° 1.9 mm 4 m/s 736 mmHg 89%
    01:00 +13°C° 1.6 mm 4 m/s 736 mmHg 89%
    02:00 +12°C° 1.6 mm 4 m/s 735 mmHg 88%
    03:00 +12°C° 1.6 mm 4 m/s 735 mmHg 88%
    04:00 +11°C° 0.7 mm 3 m/s 735 mmHg 87%
    05:00 +11°C° 0.7 mm 3 m/s 735 mmHg 86%
    06:00 +11°C° 0.7 mm 3 m/s 735 mmHg 85%
    07:00 +11°C° 0.2 mm 3 m/s 735 mmHg 85%
    08:00 +10°C° 0.2 mm 3 m/s 736 mmHg 84%
    09:00 +10°C° 0.2 mm 3 m/s 736 mmHg 83%
    10:00 +10°C° 0.7 mm 4 m/s 736 mmHg 81%
    11:00 +10°C° 0.7 mm 4 m/s 736 mmHg 78%
    12:00 +8°C° 0.7 mm 5 m/s 737 mmHg 76%
    13:00 +8°C° 0.3 mm 4 m/s 737 mmHg 72%
    14:00 +8°C° 0.3 mm 4 m/s 737 mmHg 68%
    15:00 +8°C° 0.3 mm 4 m/s 738 mmHg 63%
    16:00 +8°C° 0 mm 4 m/s 738 mmHg 63%
    17:00 +8°C° 0 mm 4 m/s 739 mmHg 63%
    18:00 +8°C° 0 mm 3 m/s 739 mmHg 63%
    19:00 +7°C° 0 mm 4 m/s 740 mmHg 64%
    20:00 +6°C° 0 mm 4 m/s 741 mmHg 65%
    21:00 +6°C° 0 mm 4 m/s 741 mmHg 67%
    22:00 +5°C° 0 mm 4 m/s 742 mmHg 67%
    23:00 +5°C° 0 mm 3 m/s 742 mmHg 68%
    Mostrar mais